www.pogodaiklimat.ru

Погода и климат >> Архив погоды >> Беларусь >> Барановичи


АРХИВ ПОГОДЫ в Барановичах

Время (UTC), дата Ветер
(напр.,м/с)
 
Видим.   Явления Облачность Т
(С)
Тd
(С)
f
(%)
Тe
(С)
Тes
(С)
Комфортность P
(гПа)
Po
(гПа)
Тmin
(С)
Tmax
(С)
R
(мм)
R24
(мм)
S
(см)
03 13.02 ЮВ 1 10 км 10/10 300 м
[St]
-1.9 -3.0 92 -4 -4 тепло 1017.0 992.6
06 13.02 ЮВ 1 10 км 9/9 600 м
[Sc]
-2.1 -3.1 93 -4 -4 тепло 1017.9 993.5 -2.2 9
09 13.02 ЮВ 2 8000 м дымка 9/0
[Ac As]
-1.0 -2.9 87 -5 -4 по сезону 1018.8 994.4
12 13.02 штиль 0 8000 м дымка 9/0
[Ac As]
+0.9 -2.6 77 0 +1 тепло 1018.7 994.5
15 13.02 СВ 1 6000 м слабый снег 10/0 300 м
[As op]
-0.4 -2.3 87 -2 -2 тепло 1018.6 994.3
18 13.02 В 1 10 км {снег} 9/9 600 м
[Sc]
-2.0 -3.8 87 -4 -4 по сезону 1019.4 994.9 +1.1 0.2
21 13.02 В 2 5000 м слабый снег 10/0
[As op]
-2.5 -3.9 90 -7 -7 по сезону 1019.8 995.3
00 14.02 СВ 3 10 км {снег} 9/9 600 м
[Sc]
-5.1 -8.1 79 -11 -11 по сезону 1020.0 995.2
03 14.02 СВ 2 10 км {снег} 6/6 600 м
[Sc]
-6.6 -9.2 82 -11 -11 по сезону 1020.6 995.7
06 14.02 СВ 2 10 км {снег} 9/0
[Ac As]
-6.0 -8.4 83 -10 -10 по сезону 1021.6 996.7 -6.6 0.4 9
09 14.02 В 4 10 км 6/0
[Ac und]
-5.6 -9.2 76 -12 -11 прохладно 1022.9 998.0
12 14.02 В 3 10 км 9/9 1000 м
[Sc]
-5.3 -8.4 79 -11 -11 прохладно 1023.5 998.6
15 14.02 СВ 3 10 км 9/0
[Ac As]
-6.1 -8.8 81 -12 -12 прохладно 1024.7 999.7
18 14.02 В 3 10 км 9/0
[Ac As]
-5.8 -8.6 81 -11 -11 прохладно 1025.8 1000.8 -4.8
21 14.02 В 3 10 км 9/0
[Ac As]
-5.8 -9.3 76 -11 -11 по сезону 1026.3 1001.3
00 15.02 СВ 2 10 км 9/0
[Ac As]
-7.3 -10.0 81 -12 -12 по сезону 1026.8 1001.7
03 15.02 В 2 10 км 9/9 1000 м
[Sc]
-8.5 -10.3 87 -13 -13 по сезону 1027.3 1002.0
06 15.02 В 1 10 км 10/0
[Ac trans Ci fib]
-9.4 -10.9 89 -12 -12 по сезону 1028.3 1002.9 -9.5 8
09 15.02 В 2 10 км {снег} 3/0
[Ci sp]
-6.0 -9.7 75 -10 -7 по сезону 1028.8 1003.7
12 15.02 В 2 10 км {снег} 9/9 600 м
[Sc]
-5.1 -9.2 73 -9 -9 по сезону 1028.6 1003.6
15 15.02 В 2 10 км 9/9 600 м
[Sc]
-5.4 -9.1 75 -10 -10 по сезону 1028.4 1003.4
18 15.02 В 2 10 км 9/0
[Ac As]
-6.4 -9.1 81 -11 -11 прохладно 1028.6 1003.5 -4.4 0.0
21 15.02 В 3 10 км 9/0
[Ac As]
-6.0 -8.4 83 -12 -12 прохладно 1028.2 1003.1
00 16.02 ЮВ 2 10 км 9/9 1000 м
[Sc]
-5.6 -8.1 83 -10 -10 по сезону 1027.2 1002.2
03 16.02 В 3 10 км слабый снег 10/0 600 м
[As op]
-5.4 -7.5 85 -11 -11 по сезону 1026.1 1001.2
06 16.02 ЮВ 3 8000 м дымка {снег} 9/9 600 м
[Sc]
-4.6 -6.3 88 -10 -10 по сезону 1025.0 1000.2 -6.4 0.0 8
09 16.02 ЮВ 3 8000 м дымка 9/9 600 м
[Sc]
-3.2 -5.2 86 -8 -8 по сезону 1024.2 999.5
12 16.02 ЮВ 3 8000 м дымка 9/0
[Ac As]
-1.0 -4.6 77 -6 -5 по сезону 1022.9 998.4
15 16.02 ЮВ 2 10 км 9/0
[Ac As]
-0.5 -3.8 78 -4 -4 по сезону 1021.9 997.5
18 16.02 ЮВ 2 10 км в посл. час снег 9/9 600 м
[Sc]
-0.9 -3.2 84 -5 -5 по сезону 1022.0 997.6 -0.4 0.0
21 16.02 ЮЗ 3 8000 м дымка 9/9 600 м
[Sc]
-0.9 -2.6 88 -6 -6 по сезону 1021.8 997.4
00 17.02 ЮЗ 2 8000 м дымка 9/9 600 м
[Sc]
-0.5 -2.0 90 -4 -4 по сезону 1022.0 997.6
03 17.02 ЮЗ 2 8000 м дымка 9/9 300 м
[Sc]
0.0 -1.3 91 -4 -4 тепло 1022.0 997.7
06 17.02 Ю 3 8000 м дымка 9/9 600 м
[Sc]
-0.2 -1.6 90 -5 -5 по сезону 1021.2 996.9 -1.1 8
09 17.02 Ю 5 8000 м дымка {снег} 10/10 300 м
[St]
-0.5 -2.6 86 -7 -7 по сезону 1020.0 995.7
12 17.02 Ю 4 8000 м дымка {снег} 9/9 600 м
[Sc]
+0.3 -2.1 84 -5 -5 по сезону 1019.6 995.3
15 17.02 ЮЗ 4 8000 м дымка 9/0
[Ac As]
+0.9 -2.1 80 -4 -4 по сезону 1019.1 994.9
18 17.02 ЮЗ 4 8000 м в посл. час снег 6/6 600 м
[Sc]
+0.2 -2.1 85 -5 -5 по сезону 1019.6 995.3 +1.1 0.0
21 17.02 З 3 10 км 9/9 600 м
[Sc]
-0.9 -4.2 78 -6 -6 по сезону 1020.1 995.7
00 18.02 ЮЗ 2 10 км 6/6 600 м
[Sc]
-2.3 -5.6 78 -6 -6 по сезону 1020.6 996.1
03 18.02 З 2 10 км 9/9 600 м
[Sc]
-2.2 -4.9 82 -6 -6 по сезону 1020.7 996.2
06 18.02 СЗ 4 10 км 9/9 600 м
[Sc]
-3.5 -7.4 74 -9 -9 по сезону 1022.1 997.4 -3.5 7
09 18.02 З 3 10 км 9/9 600 м
[Sc]
-3.3 -6.4 79 -8 -8 по сезону 1022.5 997.8
12 18.02 З 3 10 км {снег} 9/9 600 м
[Sc]
-3.1 -6.0 80 -8 -8 по сезону 1023.1 998.4
15 18.02 З 3 10 км 9/9 600 м
[Sc]
-3.2 -6.3 79 -8 -8 по сезону 1024.1 999.4
18 18.02 З 4 10 км 9/9 600 м
[Sc]
-3.8 -7.0 78 -10 -10 по сезону 1025.3 1000.5 -2.4 0.0
21 18.02 СЗ 3 10 км 9/9 1000 м
[Sc]
-4.4 -8.7 72 -10 -10 по сезону 1025.5 1000.7
00 19.02 ЮЗ 3 8000 м слабый снег 10/0
[As op]
-5.3 -7.4 85 -11 -11 по сезону 1025.1 1000.2
03 19.02 З 4 8000 м слабый снег 10/0
[As op]
-4.3 -6.1 87 -11 -11 по сезону 1024.3 999.5
06 19.02 З 4 6000 м слабый снег 10/0
[As op]
-4.5 -6.4 87 -11 -11 по сезону 1024.5 999.7 -5.5 0.7 9
09 19.02 З 3 10 км {снег} 9/9 600 м
[Sc]
-2.3 -5.3 80 -7 -7 по сезону 1024.4 999.8
12 19.02 З 3 10 км {снег} 9/9 1000 м
[Sc]
-1.2 -4.4 79 -6 -6 по сезону 1024.1 999.6
15 19.02 З 2 10 км {снег} 9/9 1000 м
[Sc]
-0.8 -3.4 83 -5 -5 по сезону 1024.2 999.7
18 19.02 ЮЗ 2 10 км {снег} 9/9 600 м
[Sc]
-1.3 -2.9 89 -5 -5 по сезону 1024.7 1000.2 -0.6 0.0
21 19.02 ЮЗ 1 10 км 6/0
[Ac trans Ci fib]
-3.3 -4.6 91 -6 -6 по сезону 1024.8 1000.1

 

Местоположение метеостанции Барановичи (Брестская область, Беларусь): широта 53.13 долгота 25.97 высота над уровнем моря 193 м.

В архиве по умолчанию представлена погода в Барановичах за последнюю неделю. Архивные данные за месяц целиком и за предыдущие месяцы, начиная с января 2011 года, Вы можете получить, выбрав интересующий диапазон дат из раскрывающегося списка и нажав кнопку "Ввод!".

Внимание! Время в таблицах - всемирное. Для получения местного времени необходимо прибавить поправку, которая в Барановичах равна 3 ч.

Смотрите также архив погоды в соседних городах и на ближайших метеорологических станциях:

Погода в Ганцевичах (Брестская область, Беларусь) (53 км)
Погода в Новогрудке (Гродненская область, Беларусь) (53 км)
Погода в Ивацевичах (Брестская область, Беларусь) (63 км)
Погода в Столбцах (Минская область, Беларусь) (64 км)
Погода в Лиде (Гродненская область, Беларусь) (96 км)
Погода в Волковыске (Гродненская область, Беларусь) (101 км)
Погода в Полесской (Брестская область, Беларусь) (105 км)
Погода в Слуцке (Минская область, Беларусь) (106 км)
Погода в Пинске (Брестская область, Беларусь) (113 км)
Погода в Воложине (Минская область, Беларусь) (113 км)

Пояснения к столбцам:

Ветер - указаны скорость ветра в м/с - средняя за 10 мин, порывы в срок и между сроками (в фигурных скобках) и направление, откуда дует ветер: С - северный, СВ - северо-восточный, В - восточный, ЮВ - юго-восточный, Ю - южный, ЮЗ - юго-западный, З - западный, СЗ - северо-западный.
Видимость - горизонтальная дальность видимости в метрах или километрах. При видимости от 1 до 10 км при отсутствии осадков обычно наблюдается дымка, при ухудшении видимости до 1 км и менее - туман. В сухую погоду видимость может ухудшаться дымом, пылью или мглою.
Явления - указаны атмосферные явления, наблюдавшиеся в срок или в последний час перед сроком; фигурными скобками обозначены явления, наблюдавшиеся между сроками (за 1-3 часа до срока); квадратными скобками обозначены град или гололедные отложения с указанием их диаметра в мм.
Облачность - указаны через наклонную черту общая и нижняя облачность в баллах и высота нижней границы облаков в метрах; квадратными скобками обозначены формы облаков: Ci - перистые, Cs - перисто-слоистые, Cc - перисто-кучевые, Ac - высококучевые, As - высокослоистые, Sc - слоисто-кучевые, Ns - слоисто-дождевые, Cu - кучевые, Cb - кучево-дождевые. Подробнее классификацию облаков см. в Атласе облаков (PDF).
T - Температура воздуха - температура, измеренная на высоте 2 м над землей.
Td - Температура точки росы - температура, при понижении до которой содержащийся в воздухе водяной пар достигнет насыщения.
f - Относительная влажность воздуха - влажноcть воздуха, измеренная на высоте 2 м над землей.
Te - Эффективная температура - температура, которую ощущает одетый по сезону человек в тени. Характеристика душности погоды. При расчете учитывается влияние влажности воздуха и скорости ветра на теплоощущения человека.
Tes - Эффективная температура на солнце - температура, которую ощущает человек, с поправкой на солнечный нагрев. Характеристика знойности погоды. Зависит от высоты солнца над горизонтом, облачности и скорости ветра. Ночью, в пасмурную погоду, а также при ветре 12 м/с и более поправка равна нулю.
P - Атмосферное давление - приведенное к уровню моря атмосферное давление.
Po - Атмосферное давление - измеренное на уровне метеостанции атмосферное давление.
Tmin - Минимальная температура - минимум температуры воздуха на высоте 2 м над землей.
Tmax - Максимальная температура - максимум температуры воздуха на высоте 2 м над землей.
R - Количество осадков - Количество выпавших осадков за период времени, мм. При наведении курсора мыши на число - период времени, за который выпало указанное количество осадков.
R24 - Количество осадков - Количество выпавших осадков за 24 часа, мм.
S - Снежный покров - Высота снежного покрова, см. При наведении курсора мыши на число - состояние снежного покрова и степень покрытия местности в баллах.